| time (UTC) | temp F | wind direction | speed knots | gust knots | rain 1hr in | rain 24hr in | rain mn in | humidity % | barometer mb |
| 20260901182012 | 61 | 90 | 0.0 | 0.9 | 0.00 | 0.00 | 0.00 | 82 | 1019.3 |
| 20260901181037 | 62 | 45 | 0.0 | 0.0 | 0.00 | 0.00 | 0.00 | 80 | 1019.2 |
| 20260901180011 | 63 | 45 | 0.0 | 0.9 | 0.00 | 0.00 | 0.00 | 79 | 1019.0 |
| 20260901175007 | 64 | 45 | 0.9 | 1.7 | 0.00 | 0.00 | 0.00 | 76 | 1019.0 |
| 20260901173009 | 66 | 0 | 0.0 | 1.7 | 0.00 | 0.00 | 0.00 | 73 | 1018.7 |
| 20260901172009 | 67 | 135 | 0.0 | 0.9 | 0.00 | 0.00 | 0.00 | 68 | 1018.6 |
| 20260901170012 | 69 | 225 | 1.7 | 2.6 | 0.00 | 0.00 | 0.00 | 64 | 1018.4 |
| 20260901165006 | 69 | 135 | 2.6 | 3.5 | 0.00 | 0.00 | 0.00 | 62 | 1018.4 |
| 20260901164008 | 70 | 270 | 2.6 | 3.5 | 0.00 | 0.00 | 0.00 | 61 | 1018.4 |
| 20260901162007 | 71 | 45 | 3.5 | 5.2 | 0.00 | 0.00 | 0.00 | 58 | 1018.4 |
| 20260901161009 | 72 | 270 | 3.5 | 4.3 | 0.00 | 0.00 | 0.00 | 57 | 1018.2 |
| 20260901160014 | 73 | 135 | 3.5 | 6.1 | 0.00 | 0.00 | 0.00 | 55 | 1018.2 |
| 20260901155005 | 73 | 135 | 3.5 | 5.2 | 0.00 | 0.00 | 0.00 | 55 | 1018.3 |
| 20260901154007 | 73 | 270 | 5.2 | 7.8 | 0.00 | 0.00 | 0.00 | 55 | 1018.3 |
| 20260901153012 | 73 | 270 | 3.5 | 7.0 | 0.00 | 0.00 | 0.00 | 56 | 1018.4 |
| 20260901152005 | 73 | 270 | 3.5 | 5.2 | 0.00 | 0.00 | 0.00 | 55 | 1018.5 |
| 20260901151011 | 74 | 270 | 4.3 | 6.1 | 0.00 | 0.00 | 0.00 | 55 | 1018.4 |
| 20260901150011 | 73 | 270 | 5.2 | 8.7 | 0.00 | 0.00 | 0.00 | 53 | 1018.5 |
| 20260901145009 | 74 | 315 | 4.3 | 9.6 | 0.00 | 0.00 | 0.00 | 57 | 1018.6 |
| 20260901144009 | 74 | 270 | 7.8 | 10.4 | 0.00 | 0.00 | 0.00 | 56 | 1018.5 |
| 20260901143009 | 73 | 135 | 3.5 | 8.7 | 0.00 | 0.00 | 0.00 | 55 | 1018.6 |
| 20260901142006 | 73 | 135 | 4.3 | 7.8 | 0.00 | 0.00 | 0.00 | 56 | 1018.5 |
| 20260901141008 | 73 | 270 | 7.0 | 10.4 | 0.00 | 0.00 | 0.00 | 56 | 1018.6 |
| 20260901140012 | 74 | 270 | 7.8 | 11.3 | 0.00 | 0.00 | 0.00 | 56 | 1018.7 |
| 20260901135006 | 73 | 135 | 4.3 | 9.6 | 0.00 | 0.00 | 0.00 | 56 | 1018.6 |
| 20260901134009 | 75 | 270 | 8.7 | 11.3 | 0.00 | 0.00 | 0.00 | 58 | 1018.5 |
| 20260901132007 | 73 | 270 | 7.0 | 9.6 | 0.00 | 0.00 | 0.00 | 60 | 1018.8 |
| 20260901131013 | 74 | 225 | 8.7 | 11.3 | 0.00 | 0.00 | 0.00 | 62 | 1018.7 |
| 20260901130013 | 72 | 135 | 7.0 | 9.6 | 0.00 | 0.01 | 0.00 | 58 | 1019.0 |
| 20260901125007 | 71 | 135 | 6.1 | 9.6 | 0.00 | 0.01 | 0.00 | 60 | 1019.0 |
| 20260901124008 | 72 | 135 | 7.8 | 11.3 | 0.00 | 0.01 | 0.00 | 62 | 1019.0 |
| 20260901123038 | 73 | 270 | 7.0 | 9.6 | 0.00 | 0.01 | 0.00 | 63 | 1018.9 |
| 20260901122008 | 71 | 135 | 6.1 | 8.7 | 0.00 | 0.01 | 0.00 | 65 | 1019.0 |
| 20260901121009 | 72 | 135 | 9.6 | 12.2 | 0.00 | 0.01 | 0.00 | 62 | 1019.1 |
| 20260901120025 | 70 | 270 | 9.6 | 11.3 | 0.00 | 0.01 | 0.00 | 66 | 1019.2 |
| 20260901115006 | 70 | 270 | 8.7 | 10.4 | 0.00 | 0.01 | 0.00 | 68 | 1019.2 |
| 20260901114006 | 69 | 270 | 7.0 | 10.4 | 0.00 | 0.01 | 0.00 | 67 | 1019.3 |
| 20260901113007 | 70 | 135 | 7.0 | 10.4 | 0.00 | 0.01 | 0.00 | 67 | 1019.2 |
| 20260901111009 | 68 | 270 | 5.2 | 9.6 | 0.00 | 0.01 | 0.00 | 67 | 1019.3 |
| 20260901110011 | 70 | 270 | 6.1 | 9.6 | 0.00 | 0.01 | 0.00 | 65 | 1019.1 |
| 20260901105007 | 69 | 270 | 6.1 | 9.6 | 0.00 | 0.01 | 0.00 | 66 | 1019.2 |
| 20260901104009 | 71 | 45 | 7.0 | 10.4 | 0.00 | 0.01 | 0.00 | 66 | 1018.9 |
| 20260901103016 | 71 | 135 | 7.0 | 9.6 | 0.00 | 0.01 | 0.00 | 65 | 1018.9 |
| 20260901102011 | 69 | 270 | 7.0 | 8.7 | 0.00 | 0.01 | 0.00 | 68 | 1019.0 |
| 20260901100023 | 69 | 135 | 6.1 | 9.6 | 0.00 | 0.01 | 0.00 | 66 | 1019.1 |
| 20260901095009 | 69 | 270 | 7.0 | 9.6 | 0.00 | 0.01 | 0.00 | 69 | 1019.0 |
| 20260901093012 | 67 | 270 | 7.0 | 8.7 | 0.00 | 0.01 | 0.00 | 72 | 1019.1 |
| 20260901092009 | 67 | 135 | 5.2 | 7.8 | 0.00 | 0.01 | 0.00 | 72 | 1019.0 |
| 20260901091010 | 67 | 270 | 4.3 | 8.7 | 0.00 | 0.01 | 0.00 | 72 | 1018.8 |
| 20260901085008 | 67 | 135 | 6.1 | 9.6 | 0.00 | 0.01 | 0.00 | 74 | 1018.7 |
| 20260901084007 | 67 | 135 | 6.1 | 9.6 | 0.00 | 0.02 | 0.00 | 73 | 1018.9 |
| 20260901083009 | 66 | 135 | 6.1 | 7.8 | 0.00 | 0.02 | 0.00 | 74 | 1018.6 |
| 20260901082007 | 65 | 135 | 7.0 | 12.2 | 0.00 | 0.04 | 0.00 | 72 | 1018.7 |
| 20260901081009 | 66 | 270 | 7.8 | 10.4 | 0.00 | 0.06 | 0.00 | 71 | 1018.6 |
| 20260901080013 | 66 | 135 | 7.0 | 9.6 | 0.00 | 0.14 | 0.00 | 71 | 1018.7 |
| 20260901075008 | 67 | 270 | 7.8 | 10.4 | 0.00 | 0.14 | 0.00 | 73 | 1018.4 |
| 20260901074008 | 67 | 270 | 7.8 | 11.3 | 0.00 | 0.14 | 0.00 | 74 | 1018.4 |
| 20260901073010 | 66 | 270 | 8.7 | 14.8 | 0.00 | 0.14 | 0.00 | 77 | 1018.3 |
| 20260901072008 | 65 | 270 | 7.0 | 9.6 | 0.00 | 0.14 | 0.00 | 79 | 1018.4 |
| 20260901071007 | 64 | 270 | 7.8 | 10.4 | 0.00 | 0.14 | 0.00 | 78 | 1018.5 |
| 20260901065008 | 64 | 270 | 7.0 | 9.6 | 0.00 | 0.14 | 0.00 | 84 | 1018.4 |
| 20260901064012 | 63 | 135 | 5.2 | 8.7 | 0.00 | 0.14 | 0.00 | 85 | 1018.3 |
| 20260901063010 | 62 | 270 | 4.3 | 7.0 | 0.00 | 0.14 | 0.00 | 86 | 1018.3 |
| 20260901062012 | 61 | 270 | 4.3 | 7.8 | 0.00 | 0.14 | 0.00 | 88 | 1018.4 |
| 20260901061009 | 61 | 270 | 3.5 | 5.2 | 0.00 | 0.14 | 0.00 | 90 | 1018.4 |
| 20260901060018 | 60 | 270 | 3.5 | 6.1 | 0.00 | 0.14 | 0.00 | 92 | 1018.4 |
| 20260901055014 | 59 | 135 | 2.6 | 3.5 | 0.00 | 0.14 | 0.00 | 93 | 1018.4 |
| 20260901054010 | 58 | 135 | 2.6 | 3.5 | 0.00 | 0.14 | 0.00 | 95 | 1018.3 |
| 20260901053012 | 57 | 270 | 1.7 | 3.5 | 0.00 | 0.14 | 0.00 | 96 | 1018.4 |
| 20260901052011 | 56 | 270 | 1.7 | 3.5 | 0.00 | 0.14 | 0.00 | 95 | 1018.3 |
| 20260901051008 | 55 | 135 | 0.9 | 1.7 | 0.00 | 0.14 | 0.00 | 95 | 1018.3 |
| 20260901045009 | 53 | 135 | 0.9 | 1.7 | 0.00 | 0.14 | 0.00 | 96 | 1018.3 |
| 20260901044010 | 53 | 135 | 1.7 | 3.5 | 0.00 | 0.14 | 0.00 | 95 | 1018.0 |
| 20260901042008 | 53 | 135 | 2.6 | 3.5 | 0.00 | 0.14 | 0.00 | 96 | 1017.9 |
| 20260901041009 | 53 | 135 | 1.7 | 3.5 | 0.00 | 0.14 | 0.00 | 96 | 1018.0 |
| 20260901040012 | 52 | 135 | 1.7 | 3.5 | 0.00 | 0.14 | 0.00 | 96 | 1018.0 |
| 20260901035006 | 53 | 135 | 1.7 | 2.6 | 0.00 | 0.14 | 0.00 | 95 | 1017.9 |
| 20260901034008 | 53 | 135 | 1.7 | 2.6 | 0.00 | 0.14 | 0.00 | 94 | 1017.6 |
| 20260901033010 | 54 | 135 | 0.9 | 1.7 | 0.00 | 0.14 | 0.00 | 93 | 1017.5 |
| 20260901032006 | 55 | 0 | 0.9 | 1.7 | 0.00 | 0.14 | 0.00 | 93 | 1017.5 |
| 20260901030011 | 54 | 135 | 1.7 | 3.5 | 0.00 | 0.14 | 0.00 | 95 | 1017.4 |
| 20260901025008 | 53 | 135 | 1.7 | 3.5 | 0.00 | 0.14 | 0.00 | 96 | 1017.2 |
| 20260901023010 | 52 | 270 | 0.0 | 1.7 | 0.00 | 0.14 | 0.00 | 97 | 1017.2 |
| 20260901022006 | 53 | 90 | 0.0 | 0.0 | 0.00 | 0.14 | 0.00 | 97 | 1017.3 |
| 20260901021007 | 53 | 135 | 0.0 | 0.9 | 0.00 | 0.14 | 0.00 | 97 | 1017.1 |
| 20260901020009 | 53 | 90 | 0.0 | 1.7 | 0.00 | 0.14 | 0.00 | 97 | 1017.0 |
| 20260901013014 | 52 | 90 | 0.0 | 0.9 | 0.00 | 0.14 | 0.00 | 97 | 1017.0 |
| 20260901012009 | 52 | 90 | 0.0 | 0.9 | 0.00 | 0.14 | 0.00 | 97 | 1017.0 |
| 20260901011009 | 53 | 90 | 0.0 | 0.9 | 0.00 | 0.14 | 0.00 | 97 | 1016.9 |
| 20260901010021 | 53 | 90 | 0.9 | 1.7 | 0.00 | 0.14 | 0.00 | 97 | 1017.0 |
| 20260901005010 | 53 | 225 | 0.0 | 0.0 | 0.00 | 0.14 | 0.00 | 97 | 1016.9 |
| 20260901004008 | 53 | 45 | 0.0 | 1.7 | 0.00 | 0.14 | 0.00 | 96 | 1016.9 |
| 20260901003007 | 53 | 90 | 0.0 | 0.9 | 0.00 | 0.14 | 0.00 | 96 | 1016.8 |
| 20260901002010 | 53 | 90 | 0.0 | 1.7 | 0.00 | 0.14 | 0.00 | 96 | 1016.7 |
| 20260901001005 | 54 | 0 | 0.0 | 0.0 | 0.00 | 0.14 | 0.00 | 96 | 1016.6 |
| 20260901000014 | 54 | 0 | 0.0 | 0.0 | 0.00 | 0.14 | 0.00 | 96 | 1016.6 |
| 20260831235006 | 55 | 0 | 0.0 | 1.7 | 0.00 | 0.14 | 0.00 | 96 | 1016.5 |
| 20260831234009 | 55 | 45 | 0.0 | 0.9 | 0.00 | 0.14 | 0.00 | 96 | 1016.5 |
| 20260831233010 | 55 | 0 | 0.0 | 2.6 | 0.00 | 0.14 | 0.00 | 96 | 1016.6 |
| 20260831231009 | 55 | 0 | 0.0 | 1.7 | 0.00 | 0.14 | 0.00 | 96 | 1016.4 |
| 20260831230019 | 55 | 270 | 0.0 | 0.9 | 0.00 | 0.14 | 0.00 | 96 | 1016.5 |
| 20260831225005 | 55 | 0 | 0.0 | 1.7 | 0.00 | 0.14 | 0.00 | 96 | 1016.4 |
| 20260831224008 | 55 | 45 | 0.0 | 1.7 | 0.00 | 0.14 | 0.00 | 96 | 1016.5 |
| 20260831223007 | 55 | 45 | 0.0 | 0.9 | 0.00 | 0.14 | 0.00 | 95 | 1016.6 |
| 20260831222006 | 56 | 90 | 0.0 | 0.9 | 0.00 | 0.14 | 0.00 | 95 | 1016.5 |
| 20260831221007 | 56 | 135 | 0.0 | 0.9 | 0.00 | 0.14 | 0.00 | 96 | 1016.3 |
| 20260831220022 | 56 | 90 | 0.0 | 0.9 | 0.00 | 0.14 | 0.00 | 96 | 1016.3 |
| 20260831215005 | 57 | 0 | 0.9 | 1.7 | 0.00 | 0.14 | 0.14 | 95 | 1016.3 |
| 20260831213010 | 56 | 45 | 0.0 | 0.9 | 0.00 | 0.14 | 0.14 | 95 | 1016.3 |
| 20260831212006 | 56 | 270 | 0.0 | 1.7 | 0.00 | 0.14 | 0.14 | 95 | 1015.9 |
| 20260831210012 | 57 | 90 | 0.0 | 1.7 | 0.00 | 0.14 | 0.14 | 95 | 1015.8 |
| 20260831205005 | 57 | 135 | 0.0 | 0.9 | 0.00 | 0.14 | 0.14 | 95 | 1015.5 |
| 20260831204007 | 57 | 0 | 0.0 | 0.9 | 0.00 | 0.14 | 0.14 | 95 | 1015.3 |
| 20260831203007 | 57 | 0 | 0.0 | 1.7 | 0.00 | 0.14 | 0.14 | 94 | 1015.1 |
| 20260831202006 | 57 | 90 | 0.0 | 0.9 | 0.00 | 0.14 | 0.14 | 94 | 1015.1 |
| 20260831200011 | 58 | 90 | 0.0 | 0.9 | 0.00 | 0.14 | 0.14 | 94 | 1014.9 |
| 20260831194008 | 59 | 0 | 0.9 | 1.7 | 0.00 | 0.14 | 0.14 | 93 | 1014.7 |
| 20260831193007 | 59 | 0 | 0.9 | 1.7 | 0.00 | 0.14 | 0.14 | 93 | 1015.1 |
| 20260831192009 | 59 | 90 | 0.0 | 0.9 | 0.00 | 0.14 | 0.14 | 93 | 1015.2 |
| 20260831185008 | 60 | 135 | 0.0 | 0.9 | 0.00 | 0.14 | 0.14 | 91 | 1014.5 |
| 20260831183010 | 62 | 135 | 0.0 | 0.9 | 0.00 | 0.14 | 0.14 | 89 | 1014.1 |